SCOUT A R/B

Satellite information

Favourite Embed

Satellite Type and Status

ROCKET BODYIN ORBIT

Key statistics

Satellite SCOUT A R/B at a glance.

Uptime

21652

Days in orbit

Revolutions

≈ 13.6

Per day

Orbit

SSO

Sun Synchronous Orbit

Inclination

90.2

Latest

Satellite identification and parameters

Extended collection of information and parameters for SCOUT A R/B.

Object identification

Identified? True

Debris? False

Object name: SCOUT A R/B

International designator: 1966-005B

Object number (NORAD): 1953

Object ID (CCSDS): 1953

Country: UNITED STATES OF AMERICA (US)

Current information (Y/N): Y

RCS size: MEDIUM

Orbital parameters

Period: 105.496 minutes

Inclination: 90.1508 deg

SMA: 7395.796 km

Apoapsis: 1184.583 km

Periapsis: 850.74 km

RAAN: 346.4315 deg

Eccentricy: 0.0225698

Argument of periapsis: 302.1695 deg

Mean anomaly: 55.7748 deg

Mean motion: 13.6497704 rev/day

Mean motion (dot): 0.00000124 rev/day2

B* drag term: 0.00012191 1/REarth

Two-line elements (TLE)

Creation date: May 10, 2025, 2:32 a.m.

Reference frame: TEME

Reference center: EARTH

Epoch: May 9, 2025, 2:50 p.m. UTC

TLE line 0: 0 SCOUT A R/B

TLE line 1: 1 01953U 66005B 25129.61817433 .00000124 00000-0 12191-3 0 9991

TLE line 2: 2 01953 90.1508 346.4315 0225698 302.1695 55.7748 13.64977040947824

Live tracking on map

Real-time ground track for satellite SCOUT A R/B.

In-orbit conjunctions

A list of the most updated potential collisions computed for object SCOUT A R/B.

Target Orbit TCA Probability of collision Miss distance Type
METEOR 1-17 DEB LEO 2024-10-29 05:08:47 0.0001191689 356.0 (m) DEBRIS

Associated space launch

The Transit-O series of satellites that closely followed the design of Transit 5C-1 were also called “Oscars” (Oscar is the phonetic alphabet for “O”, i. e., operational). They were also called NNS (Navy Navigation Satellite) or shortened NavSat.

SCOUT A R/B was lifted into orbit during the mission ‘Scout A | Transit-O 7’, on board a Scout A space rocket.

The launch took place on Jan. 28, 1966, 5:06 p.m. from Space Launch Complex 5.

For more information about the launch, click the button.

Launch to space Scout A | Transit-O 7
Scout A | Transit-O 7

Agency: N/A

Status: Launch Successful

Launch date: Jan. 28, 1966, 5:06 p.m. UTC

Rocket: Scout A

Launch pad: Space Launch Complex 5

Location: Vandenberg SFB, CA, USA

...

Latest news about this satellite

There are no fresh news available about this satellite. Check back as we update our databases every day.


Newsletter sign-up

Weekly statistics, charts and insights to help you stay on top of the space industry.